Regional Weather Roundup
Issued by NWS Jackson, KY

Home | Current Version | Previous Version | Graphics & Text | Print | Product List | Glossary On
Versions: 1 2 3 4 5 6 7 8 9 10 11 12 13 14 15 16 17 18 19 20 21 22 23 24 25 26 27 28 29 30 31 32 33 34 35 36 37 38 39 40 41 42 43 44 45 46 47 48 49 50
000
ASUS43 KJKL 252011
RWRJKL

EAST KENTUCKY HOURLY WEATHER ROUNDUP
NATIONAL WEATHER SERVICE JACKSON KY
300 PM EST TUE NOV 25 2014

NOTE: "FAIR" INDICATES FEW OR NO CLOUDS BELOW 12,000 FEET WITH
NO SIGNIFICANT WEATHER AND/OR OBSTRUCTIONS TO VISIBILITY.

* THESE REPORTS ARE NOT UNDER NWS QUALITY CONTROL AND MAY NOT
  REPORT WEATHER SUCH AS PRECIPITATION AND FOG.

KYZ079-080-083-085-087-088-110-112-115-119-120-252100
...EASTERN KENTUCKY...

CITY           SKY/WX    TMP DP  RH WIND       PRES   REMARKS
JACKSON        SUNNY     54  25  32 W6        30.06F
LONDON         SUNNY     54  24  31 W10       30.08S
SOMERSET*      SUNNY     50  30  46 CALM      30.11S
MONTICELLO*    MOSUNNY   54  30  40 NW6       30.12S
MIDDLESBORO*   SUNNY     57  27  31 W5        30.07S
HARLAN APT*    CLEAR     55  27  33 SW3       30.05F
BLACK MTN*       N/A     50  27  40 NE2         N/A
PIKEVILLE APT* SUNNY     54  27  35 SW6       30.06S
BIG SANDY*     CLEAR     54  28  35 NW6       30.06S
MOREHEAD APT*  CLEAR     48  28  46 SW9       30.10F
$$

KYZ035-036-041-042-044-050-067-078-099-252100
...CENTRAL KENTUCKY...

CITY           SKY/WX    TMP DP  RH WIND       PRES   REMARKS
MT STERLING*   SUNNY     46  32  57 W10       30.10F
FLEMING/MASON* SUNNY     48  30  49 W9        30.10F
DANVILLE*      MOSUNNY   46  30  53 NW7       30.10F
RICHMOND*      MOSUNNY   48  30  49 NW6       30.09S
LEXINGTON      SUNNY     47  27  45 W8        30.09F
FRANKFORT      SUNNY     45  25  45 NW6       30.09F
$$

KYZ091>093-OHZ055-061-077-WVZ005-015-034-035-042-252100
...SOUTHERN OHIO/WEST VIRGINIA...

CITY           SKY/WX    TMP DP  RH WIND       PRES   REMARKS
COVINGTON      PTSUNNY   44  27  51 W10       30.10S
COLUMBUS       CLOUDY    39  26  59 W12       30.10R WCI  32
DAYTON         CLOUDY    37  30  75 W9        30.12R WCI  30
WILMINGTON     PTSUNNY   42  27  55 W12       30.09S
HUNTINGTON     SUNNY     52  27  38 SW6       30.06S
CHARLESTON     MOSUNNY   55  27  34 VRB6      30.05S
PINEVILLE*     SUNNY     56  29  35 MISG      30.09F
BECKLEY        SUNNY     50  23  34 CALM      30.03F
BLUEFIELD      SUNNY     53  23  31 VRB7      30.04F
$$

VAZ002-007-008-TNZ017-027-036-066-071-252100
...SOUTHWEST VIRGINIA/EAST TENNESSEE...

CITY           SKY/WX    TMP DP  RH WIND       PRES   REMARKS
WISE*          SUNNY     52  23  32 W3        30.05S
JONESVILLE*    CLEAR     54  27  35 CALM      30.08F
ABINGDON*      SUNNY     54  28  36 W6        30.05F
BRISTOL        MOSUNNY   54  28  36 VRB3      30.06F
KNOXVILLE      MOSUNNY   56  28  34 CALM      30.05F
OAK RIDGE      SUNNY     58  27  30 S5        30.06F
CROSSVILLE     SUNNY     52  23  32 CALM      30.07F
NASHVILLE      CLOUDY    50  26  39 NW6       30.13S
$$

...KEY TO REMARKS...
VSB - VISIBILITY IN MILES
WCI - WIND CHILL INDEX
HX  - HEAT INDEX

$$



USA.gov is the U.S. government's official web portal to all federal, state and local government web resources and services.